Stations météo

réclame
Mon MeteoGroup
Voorschoten AWS, Pays-Bas (6215): Température de l'air & dewpoint: 15.02.2018 02:00:00 - 21.02.2018 02:00:00 (CET)Voorschoten AWS, Pays-Bas (6215): Température de l'air 5cm: 15.02.2018 02:00:00 - 21.02.2018 02:00:00 (CET)Voorschoten AWS, Pays-Bas (6215): Vitesse du vent & gusts: 15.02.2018 02:00:00 - 21.02.2018 02:00:00 (CET)Voorschoten AWS, Pays-Bas (6215): Direction du vent: 15.02.2018 02:00:00 - 21.02.2018 02:00:00 (CET)Voorschoten AWS, Pays-Bas (6215): reduced air pressure: 15.02.2018 02:00:00 - 21.02.2018 02:00:00 (CET)Voorschoten AWS, Pays-Bas (6215): visibility: 15.02.2018 02:00:00 - 21.02.2018 02:00:00 (CET)Voorschoten AWS, Pays-Bas (6215): Quantités de précipitations: 15.02.2018 02:00:00 - 21.02.2018 02:00:00 (CET)
Date & Time tt [°C] td [°C] tt 5cm [°C] ff [km/h] ff [knt] fx [km/h] fx [knt] dd ppp [hPa] vv [km] rr [mm]
21.02.2018 02:00:00 -2,5 -3,1 -3,6 7 4 11 6 N 1025,4 2,2 0,0
21.02.2018 01:00:00 -0,3 -1,6 -1,6 7 4 18 10 NE 1024,9 3,9 0,0
21.02.2018 00:00:00 0,6 -1,3 -0,4 14 8 18 10 NE 1024,9 5 0,0
20.02.2018 23:00:00 0,9 -1,3 -0,2 11 6 14 8 NNE 1024,5 6 0,0
20.02.2018 22:00:00 1,7 -0,7 0,5 11 6 18 10 NNE 1023,9 6 0,0
20.02.2018 21:00:00 1,4 -0,9 0,6 14 8 18 10 NE 1023,2 6 0,0
20.02.2018 20:00:00 2,1 -0,6 1,0 14 8 22 12 NE 1022,4 6 0,0
20.02.2018 19:00:00 2,2 -0,7 1,2 14 8 22 12 NE 1021,5 6 0,0
20.02.2018 18:00:00 3,0 -0,7 2,0 14 8 22 12 NE 1020,6 7 0,0
20.02.2018 17:00:00 4,2 -0,1 4,0 11 6 18 10 NE 1020,1 8 0,0
20.02.2018 16:00:00 4,4 -0,6 4,5 11 6 14 8 NE 1019,8 10 0,0
20.02.2018 15:00:00 4,7 -0,2 5,0 7 4 14 8 NE 1019,6 10 0,0
20.02.2018 14:00:00 4,1 -0,9 4,8 7 4 14 8 ESE 1019,7 11 0,0
20.02.2018 13:00:00 3,7 -1,0 4,5 11 6 14 8 E 1019,9 9 0,0
20.02.2018 12:00:00 3,7 -0,3 5,0 11 6 14 8 ESE 1019,9 8 0,0
20.02.2018 11:00:00 2,4 -0,5 2,7 11 6 18 10 E 1019,1 6 0,0
20.02.2018 10:00:00 1,6 -1,1 1,8 7 4 11 6 SSE 1019,7 7 0,0
20.02.2018 09:00:00 0,7 -1,5 0,3 11 6 14 8 ESE 1019,0 7 0,0
20.02.2018 08:00:00 0,3 -1,6 -0,3 7 4 11 6 E 1019,2 7 0,0
20.02.2018 07:00:00 0,5 -1,5 -0,6 7 4 11 6 ENE 1018,7 7 0,0
20.02.2018 06:00:00 0,2 -1,4 -0,6 11 6 18 10 E 1018,5 6 0,0
20.02.2018 05:00:00 -0,2 -1,3 -2,4 14 8 18 10 ENE 1018,6 6 0,0
20.02.2018 04:00:00 -2,7 -3,4 -4,2 7 4 11 6 NE 1018,6 2,6 0,0
20.02.2018 03:00:00 -0,3 -1,2 -2,8 7 4 11 6 E 1018,7 5 0,0
20.02.2018 02:00:00 0,3 -0,5 -2,3 7 4 7 4 E 1018,3 7 0,0
20.02.2018 01:00:00 0,9 -0,1 -0,2 7 4 11 6 E 1018,1 6 0,0
20.02.2018 00:00:00 2,0 0,8 1,7 7 4 14 8 E 1018,1 6 0,0
19.02.2018 23:00:00 2,2 1,2 1,8 11 6 14 8 ESE 1017,7 5 0,0
19.02.2018 22:00:00 2,5 1,8 2,4 7 4 14 8 ESE 1017,9 4,4 0,0
19.02.2018 21:00:00 2,6 1,8 2,5 11 6 14 8 ESE 1018,1 3,9 0,3
19.02.2018 20:00:00 2,7 1,7 2,6 11 6 22 12 ESE 1018,0 4,8 0,1
19.02.2018 19:00:00 3,0 1,7 2,8 14 8 18 10 ESE 1017,5 6 0,0
19.02.2018 18:00:00 3,0 1,6 2,9 14 8 22 12 ESE 1017,5 6 0,0
19.02.2018 17:00:00 3,5 1,1 3,4 14 8 18 10 SE 1017,3 8 0,0
19.02.2018 16:00:00 3,8 1,1 3,9 14 8 18 10 SSE 1017,5 9 0,0
19.02.2018 15:00:00 3,6 0,9 3,9 11 6 18 10 SE 1017,9 8 0,0
19.02.2018 14:00:00 3,2 0,5 3,5 14 8 22 12 SSE 1018,2 9 0,0
19.02.2018 13:00:00 3,1 0,4 3,6 14 8 25 14 SSE 1018,5 9 0,0
19.02.2018 12:00:00 2,6 0,0 3,2 14 8 22 12 SSE 1018,8 8 0,0
19.02.2018 11:00:00 2,3 -0,1 2,5 14 8 22 12 S 1018,9 8 0,0
19.02.2018 10:00:00 2,0 -0,4 2,1 14 8 22 12 SSE 1019,2 8 0,0
19.02.2018 09:00:00 1,6 -0,7 1,5 11 6 22 12 S 1019,4 9 0,0
19.02.2018 08:00:00 1,5 -0,7 1,2 14 8 22 12 S 1019,6 9 0,0
19.02.2018 07:00:00 1,5 -0,8 1,1 14 8 18 10 S 1019,5 10 0,0
19.02.2018 06:00:00 1,7 -0,9 1,1 14 8 18 10 S 1019,7 11 0,0
19.02.2018 05:00:00 1,9 -0,9 1,2 14 8 18 10 S 1020,1 12 0,0
19.02.2018 04:00:00 1,9 -0,5 1,1 11 6 14 8 S 1020,4 12 0,0
19.02.2018 03:00:00 1,7 0,0 0,2 11 6 14 8 SSE 1021,1 10 0,0
19.02.2018 02:00:00 0,9 -0,6 -0,5 7 4 14 8 S 1021,6 11 0,0
19.02.2018 01:00:00 0,6 -0,8 -2,6 11 6 14 8 S 1022,0 11 0,0
19.02.2018 00:00:00 -1,0 -1,5 -3,2 7 4 7 4 SSE 1022,3 4,3 0,0
18.02.2018 23:00:00 0,0 -0,5 -2,5 7 4 11 6 SE 1022,6 6 0,0
18.02.2018 22:00:00 1,0 -0,1 -2,2 7 4 11 6 SSE 1022,8 8 0,0
18.02.2018 21:00:00 1,4 0,2 -1,0 7 4 14 8 SSE 1023,1 8 0,0
18.02.2018 20:00:00 2,2 0,3 -0,5 7 4 11 6 SSE 1023,5 10 0,0
18.02.2018 19:00:00 3,9 0,9 1,8 11 6 14 8 S 1023,7 12 0,0
18.02.2018 18:00:00 5,0 1,3 2,9 11 6 18 10 S 1023,6 14 0,0
18.02.2018 17:00:00 6,6 1,8 6,0 14 8 22 12 SSW 1023,8 15 0,0
18.02.2018 16:00:00 7,7 2,3 7,5 18 10 25 14 S 1024,1 13 0,0
18.02.2018 15:00:00 7,3 1,5 8,2 18 10 25 14 S 1024,2 14 0,0
18.02.2018 14:00:00 7,3 2,0 8,7 14 8 22 12 S 1024,6 11 0,0
18.02.2018 13:00:00 6,2 2,2 7,1 11 6 18 10 SE 1024,9 9 0,0
18.02.2018 12:00:00 5,2 2,2 6,6 11 6 14 8 SE 1025,3 8 0,0
18.02.2018 11:00:00 2,7 0,5 3,6 7 4 11 6 SE 1025,4 7 0,0
18.02.2018 10:00:00 0,4 -1,2 0,7 7 4 7 4 SE 1025,4 6 0,1
18.02.2018 09:00:00 -1,8 -2,5 -3,5 7 4 7 4 SE 1025,4 4,2 0,0
18.02.2018 08:00:00 -3,0 -3,6 -5,4 7 4 11 6 SE 1025,2 4,1 0,0
18.02.2018 07:00:00 -2,9 -3,6 -6,2 7 4 7 4 ESE 1025,2 4,7 0,0
18.02.2018 06:00:00 -3,0 -3,7 -6,3 4 2 11 6 SE 1025,1 4,4 0,0
18.02.2018 05:00:00 -3,6 -4,1 -6,2 7 4 7 4 ESE 1025,2 3,6 0,0
18.02.2018 04:00:00 -2,6 -3,4 -6,2 4 2 7 4 SE 1025,4 4,7 0,0
18.02.2018 03:00:00 -2,8 -3,8 -5,5 7 4 11 6 ESE 1025,5 5 0,0
18.02.2018 02:00:00 -2,7 -3,3 -5,8 7 4 11 6 SE 1025,5 6 0,0
18.02.2018 01:00:00 -3,2 -3,4 -5,9 4 2 7 4 SSE 1025,6 3,3 0,0
18.02.2018 00:00:00 -2,5 -3,5 -5,4 7 4 11 6 SE 1025,7 6 0,0
17.02.2018 23:00:00 -2,1 -2,7 -5,2 4 2 4 2 SSE 1025,6 8 0,0
17.02.2018 22:00:00 -2,0 -2,8 -4,7 0 0 7 4 N 1025,3 7 0,0
17.02.2018 21:00:00 -1,4 -2,2 -4,4 4 2 7 4 E 1025,0 10 0,0
17.02.2018 20:00:00 0,2 -1,4 -3,6 7 4 7 4 E 1024,8 12 0,0
17.02.2018 19:00:00 1,1 -1,0 -2,5 4 2 7 4 SE 1024,4 15 0,0
17.02.2018 18:00:00 4,6 -1,6 0,7 4 2 14 8 SE 1023,7 22 0,0
17.02.2018 17:00:00 5,9 -1,4 4,6 11 6 18 10 ESE 1023,5 26 0,0
17.02.2018 16:00:00 6,9 -1,0 6,9 11 6 18 10 E 1023,2 22 0,0
17.02.2018 15:00:00 7,2 0,5 8,3 11 6 18 10 E 1023,1 17 0,0
17.02.2018 14:00:00 7,0 1,4 8,4 7 4 14 8 ESE 1023,4 13 0,0
17.02.2018 13:00:00 5,7 0,7 6,5 11 6 18 10 ESE 1023,6 14 0,0
17.02.2018 12:00:00 4,3 0,7 4,2 7 4 14 8 E 1023,7 12 0,0
17.02.2018 11:00:00 3,0 0,2 2,9 7 4 14 8 ESE 1023,3 14 0,0
17.02.2018 10:00:00 2,0 -0,5 1,0 7 4 11 6 E 1023,2 16 0,0
17.02.2018 09:00:00 0,2 -1,3 -1,9 4 2 7 4 ENE 1023,1 15 0,0
17.02.2018 08:00:00 -0,5 -1,7 -2,1 7 4 11 6 ESE 1023,1 16 0,0
17.02.2018 07:00:00 -0,1 -1,5 -1,6 7 4 14 8 ESE 1023,1 16 0,0
17.02.2018 06:00:00 -0,6 -1,7 -2,8 7 4 7 4 ESE 1023,5 17 0,0
17.02.2018 05:00:00 -0,8 -1,7 -2,7 4 2 11 6 SE 1023,8 15 0,0
17.02.2018 04:00:00 -0,4 -1,5 -2,4 7 4 11 6 ESE 1024,4 15 0,0
17.02.2018 03:00:00 0,1 -0,6 -3,2 4 2 7 4 ESE 1024,7 15 0,0
17.02.2018 02:00:00 -0,1 -0,6 -2,8 4 2 7 4 E 1024,9 13 0,0
17.02.2018 01:00:00 -0,5 -0,7 -2,2 4 2 7 4 ESE 1025,3 12 0,0
17.02.2018 00:00:00 -0,9 -0,9 -3,1 4 2 7 4 ENE 1025,7 9 0,0
16.02.2018 23:00:00 -1,7 -1,7 -3,2 4 2 7 4 SSE 1025,7 9 0,0
16.02.2018 22:00:00 -1,1 -1,1 -3,2 4 2 7 4 ESE 1026,0 9 0,0
16.02.2018 21:00:00 0,0 -0,2 -3,1 4 2 7 4 ESE 1026,0 10 0,0
16.02.2018 20:00:00 0,9 0,7 -2,3 0 0 4 2 N 1026,4 14 0,0
16.02.2018 19:00:00 2,2 1,2 -0,6 4 2 11 6 SSW 1026,5 17 0,0
16.02.2018 18:00:00 4,5 1,6 3,4 11 6 18 10 WSW 1026,3 21 0,0
16.02.2018 17:00:00 6,4 0,7 5,9 14 8 22 12 WSW 1026,4 22 0,0
16.02.2018 16:00:00 6,6 0,5 6,6 14 8 25 14 WSW 1026,2 23 0,0
16.02.2018 15:00:00 6,9 1,2 7,6 18 10 32 18 W 1026,2 22 0,0
16.02.2018 14:00:00 7,2 2,3 8,1 18 10 32 18 W 1026,4 21 0,0
16.02.2018 13:00:00 6,8 1,3 7,9 22 12 32 18 WSW 1026,3 18 0,0
16.02.2018 12:00:00 6,7 2,5 7,1 25 14 32 18 W 1025,9 24 0,0
16.02.2018 11:00:00 6,1 1,6 6,6 25 14 32 18 WSW 1025,3 21 0,0
16.02.2018 10:00:00 5,8 2,1 5,6 18 10 29 16 W 1024,5 21 0,0
16.02.2018 09:00:00 4,2 0,8 2,5 14 8 25 14 W 1023,6 17 0,0
16.02.2018 08:00:00 3,6 0,6 2,1 14 8 25 14 W 1022,9 20 0,0
16.02.2018 07:00:00 4,0 0,5 2,7 18 10 29 16 W 1022,1 19 0,0
16.02.2018 06:00:00 4,0 1,5 2,7 14 8 29 16 W 1021,5 18 0,0
16.02.2018 05:00:00 4,2 1,9 2,7 14 8 22 12 WSW 1020,7 16 0,0
16.02.2018 04:00:00 4,3 1,4 3,2 14 8 25 14 W 1020,2 18 0,0
16.02.2018 03:00:00 5,2 1,6 3,6 22 12 29 16 W 1019,6 17 0,0
16.02.2018 02:00:00 5,0 1,9 3,9 18 10 29 16 WSW 1019,0 15 0,0
16.02.2018 01:00:00 4,8 1,8 3,5 14 8 25 14 WSW 1018,4 14 0,0
16.02.2018 00:00:00 5,6 2,0 4,3 18 10 32 18 WSW 1017,7 22 0,0
15.02.2018 23:00:00 4,2 1,1 2,3 11 6 18 10 SW 1016,9 24 0,0
15.02.2018 22:00:00 5,3 2,0 3,7 14 8 22 12 SW 1016,2 22 0,0
15.02.2018 21:00:00 5,3 2,8 4,0 14 8 25 14 WSW 1015,8 18 0,0
15.02.2018 20:00:00 6,1 3,4 5,0 22 12 32 18 WSW 1015,3 19 0,0
15.02.2018 19:00:00 6,8 3,0 5,4 22 12 29 16 WSW 1014,4 22 0,0
15.02.2018 18:00:00 7,0 3,5 5,7 18 10 29 16 WSW 1013,3 22 0,0
15.02.2018 17:00:00 7,9 4,6 7,4 22 12 36 19 WSW 1012,2 20 0,0
15.02.2018 16:00:00 8,5 5,8 8,7 25 14 43 23 W 1011,3 15 0,0
15.02.2018 15:00:00 9,4 6,3 9,5 29 16 47 25 W 1010,3 15 0,0
15.02.2018 14:00:00 9,0 6,6 9,2 29 16 47 25 WSW 1009,6 14 0,0
15.02.2018 13:00:00 9,0 7,7 8,7 22 12 36 19 WSW 1008,8 10 0,0
15.02.2018 12:00:00 6,2 6,2 6,2 18 10 29 16 SSW 1008,4 1,2 0,0
15.02.2018 11:00:00 5,1 5,1 5,0 22 12 32 18 SSW 1007,9 1,1 0,0
15.02.2018 10:00:00 4,4 4,2 4,1 18 10 29 16 S 1007,5 2,7 0,0
15.02.2018 09:00:00 3,5 3,3 3,4 18 10 32 18 S 1006,7 2,2 0,0
15.02.2018 08:00:00 3,1 2,8 3,0 22 12 36 19 S 1006,3 2,8 0,1
15.02.2018 07:00:00 2,9 2,4 2,8 25 14 40 21 S 1006,2 2,8 0,0
15.02.2018 06:00:00 2,8 2,1 2,6 22 12 40 21 S 1006,4 13 0,2
15.02.2018 05:00:00 2,4 1,7 2,2 25 14 47 25 SSE 1006,6 3,4 0,6
15.02.2018 04:00:00 2,2 1,3 1,9 29 16 47 25 SSE 1006,5 8 1,0
15.02.2018 03:00:00 1,9 0,9 1,5 29 16 43 23 SSE 1007,4 9 1,1
15.02.2018 02:00:00 2,2 0,9 1,9 32 18 43 23 SSE 1007,7 7 1,6

tt = Température de l'air
td = dewpoint
tt 5cm = Température de l'air 5cm
ff = Vitesse du vent
fx = gusts
dd = Direction du vent
ppp = reduced air pressure
vv = visibility
rr = Quantités de précipitations

stations d'obs. à proximité